Time,TemperatureF,DewpointF,PressureIn,WindDirection,WindDirectionDegrees,WindSpeedMPH,WindSpeedGustMPH,Humidity,HourlyPrecipIn,Conditions,Clouds,dailyrainin,SoftwareType,DateUTC
2013-01-22 00:02:00,17.0,12.0,30.38,WSW,255,2.0,-999.0,80,-99.99,,,-99.99,,2013-01-22 07:02:00,
2013-01-22 00:11:00,17.0,12.0,30.38,WSW,255,2.0,-999.0,80,-99.99,,,-99.99,,2013-01-22 07:11:00,
2013-01-22 00:22:00,16.0,11.0,30.40,WSW,255,1.0,-999.0,82,-99.99,,,-99.99,,2013-01-22 07:22:00,
2013-01-22 00:32:00,16.0,11.0,30.40,WSW,255,1.0,-999.0,82,-99.99,,,-99.99,,2013-01-22 07:32:00,
2013-01-22 00:42:00,16.0,11.0,30.40,WSW,255,1.0,-999.0,82,-99.99,,,-99.99,,2013-01-22 07:42:00,
2013-01-22 00:52:00,16.0,11.0,30.37,WSW,255,1.0,-999.0,81,-99.99,,,-99.99,,2013-01-22 07:52:00,
2013-01-22 01:02:00,15.0,10.0,30.37,WSW,255,2.0,-999.0,81,-99.99,,,-99.99,,2013-01-22 08:02:00,
2013-01-22 01:11:00,15.0,10.0,30.37,WSW,255,2.0,-999.0,81,-99.99,,,-99.99,,2013-01-22 08:11:00,
2013-01-22 01:22:00,15.0,10.0,30.37,WSW,255,1.0,-999.0,81,-99.99,,,-99.99,,2013-01-22 08:22:00,
2013-01-22 01:32:00,15.0,10.0,30.38,WSW,255,2.0,-999.0,81,-99.99,,,-99.99,,2013-01-22 08:32:00,
2013-01-22 01:42:00,15.0,10.0,30.38,WSW,255,2.0,-999.0,81,-99.99,,,-99.99,,2013-01-22 08:42:00,
2013-01-22 01:52:00,15.0,11.0,30.38,WSW,255,2.0,-999.0,82,-99.99,,,-99.99,,2013-01-22 08:52:00,
2013-01-22 02:02:00,14.0,9.0,30.39,WSW,255,0.0,-999.0,81,-99.99,,,-99.99,,2013-01-22 09:02:00,
2013-01-22 02:11:00,14.0,9.0,30.39,WSW,255,0.0,-999.0,81,-99.99,,,-99.99,,2013-01-22 09:11:00,
2013-01-22 02:22:00,14.0,10.0,30.39,WSW,255,3.0,-999.0,82,-99.99,,,-99.99,,2013-01-22 09:22:00,
2013-01-22 02:32:00,14.0,9.0,30.40,WSW,255,2.0,-999.0,81,-99.99,,,-99.99,,2013-01-22 09:32:00,
2013-01-22 02:42:00,14.0,9.0,30.40,WSW,255,2.0,-999.0,81,-99.99,,,-99.99,,2013-01-22 09:42:00,
2013-01-22 02:52:00,14.0,9.0,30.39,WSW,255,1.0,-999.0,81,-99.99,,,-99.99,,2013-01-22 09:52:00,
2013-01-22 03:02:00,13.0,8.0,30.39,WSW,255,1.0,-999.0,81,-99.99,,,-99.99,,2013-01-22 10:02:00,
2013-01-22 03:11:00,13.0,8.0,30.39,WSW,255,1.0,-999.0,81,-99.99,,,-99.99,,2013-01-22 10:11:00,
2013-01-22 03:22:00,13.0,9.0,30.39,WSW,255,2.0,-999.0,82,-99.99,,,-99.99,,2013-01-22 10:22:00,
2013-01-22 03:32:00,13.0,9.0,30.40,WSW,255,2.0,-999.0,82,-99.99,,,-99.99,,2013-01-22 10:32:00,
2013-01-22 03:42:00,13.0,9.0,30.40,WSW,255,2.0,-999.0,82,-99.99,,,-99.99,,2013-01-22 10:42:00,
2013-01-22 03:52:00,13.0,9.0,30.40,WSW,255,2.0,-999.0,82,-99.99,,,-99.99,,2013-01-22 10:52:00,
2013-01-22 04:02:00,11.0,7.0,30.40,WSW,255,2.0,-999.0,82,-99.99,,,-99.99,,2013-01-22 11:02:00,
2013-01-22 04:12:00,11.0,7.0,30.40,WSW,255,2.0,-999.0,82,-99.99,,,-99.99,,2013-01-22 11:12:00,
2013-01-22 04:22:00,12.0,8.0,30.40,WSW,255,2.0,-999.0,82,-99.99,,,-99.99,,2013-01-22 11:22:00,
2013-01-22 04:32:00,12.0,8.0,30.40,WSW,255,2.0,-999.0,82,-99.99,,,-99.99,,2013-01-22 11:32:00,
2013-01-22 04:42:00,12.0,8.0,30.40,WSW,255,2.0,-999.0,82,-99.99,,,-99.99,,2013-01-22 11:42:00,
2013-01-22 04:53:00,12.0,8.0,30.43,WSW,255,2.0,-999.0,82,-99.99,,,-99.99,,2013-01-22 11:53:00,
2013-01-22 05:03:00,11.0,6.0,30.43,WSW,255,2.0,-999.0,81,-99.99,,,-99.99,,2013-01-22 12:03:00,
2013-01-22 05:12:00,11.0,6.0,30.43,WSW,255,2.0,-999.0,81,-99.99,,,-99.99,,2013-01-22 12:12:00,
2013-01-22 05:22:00,11.0,6.0,30.43,WSW,255,2.0,-999.0,81,-99.99,,,-99.99,,2013-01-22 12:22:00,
2013-01-22 05:32:00,11.0,6.0,30.43,WSW,255,2.0,-999.0,81,-99.99,,,-99.99,,2013-01-22 12:32:00,
2013-01-22 05:42:00,11.0,7.0,30.43,WSW,255,2.0,-999.0,82,-99.99,,,-99.99,,2013-01-22 12:42:00,
2013-01-22 05:52:00,12.0,8.0,30.47,WSW,255,2.0,-999.0,82,-99.99,,,-99.99,,2013-01-22 12:52:00,
2013-01-22 06:03:00,12.0,8.0,30.47,WSW,255,1.0,-999.0,82,-99.99,,,-99.99,,2013-01-22 13:03:00,
2013-01-22 06:12:00,12.0,8.0,30.47,WSW,255,1.0,-999.0,82,-99.99,,,-99.99,,2013-01-22 13:12:00,
2013-01-22 06:23:00,11.0,6.0,30.47,WSW,255,3.0,-999.0,80,-99.99,,,-99.99,,2013-01-22 13:23:00,
2013-01-22 06:33:00,11.0,6.0,30.48,WSW,255,3.0,-999.0,81,-99.99,,,-99.99,,2013-01-22 13:33:00,
2013-01-22 06:42:00,11.0,6.0,30.48,WSW,255,3.0,-999.0,81,-99.99,,,-99.99,,2013-01-22 13:42:00,
2013-01-22 06:52:00,10.0,5.0,30.54,WSW,255,1.0,-999.0,81,-99.99,,,-99.99,,2013-01-22 13:52:00,
2013-01-22 07:02:00,11.0,6.0,30.54,WSW,255,2.0,-999.0,81,-99.99,,,-99.99,,2013-01-22 14:02:00,
2013-01-22 07:12:00,11.0,6.0,30.54,WSW,255,2.0,-999.0,81,-99.99,,,-99.99,,2013-01-22 14:12:00,
2013-01-22 07:22:00,11.0,6.0,30.54,WSW,255,2.0,-999.0,81,-99.99,,,-99.99,,2013-01-22 14:22:00,
2013-01-22 07:33:00,10.0,5.0,30.54,WSW,255,1.0,-999.0,81,-99.99,,,-99.99,,2013-01-22 14:33:00,
2013-01-22 07:43:00,10.0,5.0,30.54,WSW,255,1.0,-999.0,81,-99.99,,,-99.99,,2013-01-22 14:43:00,
2013-01-22 07:53:00,11.0,6.0,30.57,WSW,255,3.0,-999.0,81,-99.99,,,-99.99,,2013-01-22 14:53:00,
2013-01-22 08:03:00,10.0,5.0,30.57,WSW,255,3.0,-999.0,80,-99.99,,,-99.99,,2013-01-22 15:03:00,
2013-01-22 08:12:00,10.0,5.0,30.57,WSW,255,3.0,-999.0,80,-99.99,,,-99.99,,2013-01-22 15:12:00,
2013-01-22 08:23:00,12.0,7.0,30.57,WSW,255,2.0,-999.0,81,-99.99,,,-99.99,,2013-01-22 15:23:00,
2013-01-22 08:33:00,14.0,9.0,30.56,WSW,255,1.0,-999.0,80,-99.99,,,-99.99,,2013-01-22 15:33:00,
2013-01-22 08:43:00,14.0,9.0,30.56,WSW,255,1.0,-999.0,80,-99.99,,,-99.99,,2013-01-22 15:43:00,
2013-01-22 08:52:00,15.0,9.0,30.57,WSW,255,1.0,-999.0,78,-99.99,,,-99.99,,2013-01-22 15:52:00,
2013-01-22 09:03:00,16.0,10.0,30.55,WSW,255,3.0,-999.0,77,-99.99,,,-99.99,,2013-01-22 16:03:00,
2013-01-22 09:12:00,16.0,10.0,30.55,WSW,255,3.0,-999.0,77,-99.99,,,-99.99,,2013-01-22 16:12:00,
2013-01-22 09:23:00,18.0,12.0,30.56,WSW,255,2.0,-999.0,76,-99.99,,,-99.99,,2013-01-22 16:23:00,
2013-01-22 09:33:00,21.0,14.0,30.55,WSW,255,3.0,-999.0,75,-99.99,,,-99.99,,2013-01-22 16:33:00,
2013-01-22 09:42:00,21.0,14.0,30.55,WSW,255,3.0,-999.0,75,-99.99,,,-99.99,,2013-01-22 16:42:00,
2013-01-22 09:53:00,23.0,16.0,30.54,WSW,255,1.0,-999.0,73,-99.99,,,-99.99,,2013-01-22 16:53:00,
2013-01-22 10:03:00,25.0,17.0,30.52,WSW,255,2.0,-999.0,70,-99.99,,,-99.99,,2013-01-22 17:03:00,
2013-01-22 10:12:00,25.0,17.0,30.52,WSW,255,2.0,-999.0,70,-99.99,,,-99.99,,2013-01-22 17:12:00,
2013-01-22 10:22:00,27.0,18.0,30.51,WSW,255,1.0,-999.0,68,-99.99,,,-99.99,,2013-01-22 17:22:00,
2013-01-22 10:33:00,28.0,18.0,30.50,WSW,255,1.0,-999.0,65,-99.99,,,-99.99,,2013-01-22 17:33:00,
2013-01-22 10:43:00,28.0,18.0,30.50,WSW,255,1.0,-999.0,65,-99.99,,,-99.99,,2013-01-22 17:43:00,
2013-01-22 10:53:00,30.0,19.0,30.50,WSW,255,0.0,-999.0,63,-99.99,,,-99.99,,2013-01-22 17:53:00,
2013-01-22 11:03:00,32.0,19.0,30.48,WSW,255,0.0,-999.0,57,-99.99,,,-99.99,,2013-01-22 18:03:00,
2013-01-22 11:12:00,32.0,19.0,30.48,WSW,255,0.0,-999.0,57,-99.99,,,-99.99,,2013-01-22 18:12:00,
2013-01-22 11:23:00,33.0,19.0,30.47,WSW,255,0.0,-999.0,56,-99.99,,,-99.99,,2013-01-22 18:23:00,
2013-01-22 11:33:00,33.0,18.0,30.47,WSW,255,1.0,-999.0,54,-99.99,,,-99.99,,2013-01-22 18:33:00,
2013-01-22 11:42:00,33.0,18.0,30.47,WSW,255,1.0,-999.0,54,-99.99,,,-99.99,,2013-01-22 18:42:00,
2013-01-22 11:53:00,34.0,18.0,30.46,WSW,255,1.0,-999.0,52,-99.99,,,-99.99,,2013-01-22 18:53:00,
2013-01-22 12:03:00,35.0,19.0,30.44,WSW,255,1.0,-999.0,51,-99.99,,,-99.99,,2013-01-22 19:03:00,
2013-01-22 12:12:00,35.0,19.0,30.44,WSW,255,1.0,-999.0,51,-99.99,,,-99.99,,2013-01-22 19:12:00,
2013-01-22 12:22:00,36.0,19.0,30.43,WSW,255,2.0,-999.0,50,-99.99,,,-99.99,,2013-01-22 19:22:00,
2013-01-22 12:33:00,37.0,19.0,30.41,WSW,255,2.0,-999.0,48,-99.99,,,-99.99,,2013-01-22 19:33:00,
2013-01-22 12:42:00,37.0,19.0,30.41,WSW,255,2.0,-999.0,48,-99.99,,,-99.99,,2013-01-22 19:42:00,
2013-01-22 12:53:00,37.0,18.0,30.42,WSW,252,3.0,-999.0,46,-99.99,,,-99.99,,2013-01-22 19:53:00,
2013-01-22 13:03:00,37.0,18.0,30.42,WSW,252,3.0,-999.0,46,-99.99,,,-99.99,,2013-01-22 20:03:00,
2013-01-22 13:12:00,37.0,18.0,30.42,WSW,252,3.0,-999.0,46,-99.99,,,-99.99,,2013-01-22 20:12:00,
2013-01-22 13:22:00,38.0,19.0,30.41,WSW,245,4.0,-999.0,45,-99.99,,,-99.99,,2013-01-22 20:22:00,
2013-01-22 13:33:00,39.0,18.0,30.39,WSW,243,3.0,-999.0,43,-99.99,,,-99.99,,2013-01-22 20:33:00,
2013-01-22 13:42:00,39.0,18.0,30.39,WSW,243,3.0,-999.0,43,-99.99,,,-99.99,,2013-01-22 20:42:00,
2013-01-22 13:53:00,39.0,18.0,30.39,WSW,243,3.0,-999.0,43,-99.99,,,-99.99,,2013-01-22 20:53:00,
2013-01-22 14:03:00,39.0,18.0,30.39,WSW,243,3.0,-999.0,43,-99.99,,,-99.99,,2013-01-22 21:03:00,
2013-01-22 14:12:00,39.0,18.0,30.39,WSW,243,3.0,-999.0,43,-99.99,,,-99.99,,2013-01-22 21:12:00,
2013-01-22 14:22:00,40.0,19.0,30.37,WSW,243,1.0,-999.0,43,-99.99,,,-99.99,,2013-01-22 21:22:00,
2013-01-22 14:33:00,41.0,20.0,30.37,WSW,243,2.0,-999.0,43,-99.99,,,-99.99,,2013-01-22 21:33:00,
2013-01-22 14:43:00,41.0,20.0,30.37,WSW,243,2.0,-999.0,43,-99.99,,,-99.99,,2013-01-22 21:43:00,
2013-01-22 14:52:00,41.0,20.0,30.37,WSW,243,1.0,-999.0,42,-99.99,,,-99.99,,2013-01-22 21:52:00,
2013-01-22 15:02:00,42.0,21.0,30.36,WSW,243,1.0,-999.0,42,-99.99,,,-99.99,,2013-01-22 22:02:00,
2013-01-22 15:12:00,42.0,21.0,30.36,WSW,243,1.0,-999.0,42,-99.99,,,-99.99,,2013-01-22 22:12:00,
2013-01-22 15:22:00,41.0,19.0,30.36,WSW,243,2.0,-999.0,41,-99.99,,,-99.99,,2013-01-22 22:22:00,
2013-01-22 15:32:00,41.0,19.0,30.36,WSW,243,2.0,-999.0,41,-99.99,,,-99.99,,2013-01-22 22:32:00,
2013-01-22 15:42:00,42.0,19.0,30.36,WSW,243,1.0,-999.0,40,-99.99,,,-99.99,,2013-01-22 22:42:00,
2013-01-22 15:52:00,42.0,20.0,30.36,WSW,243,1.0,-999.0,41,-99.99,,,-99.99,,2013-01-22 22:52:00,
2013-01-22 16:02:00,43.0,19.0,30.35,WSW,243,0.0,-999.0,38,-99.99,,,-99.99,,2013-01-22 23:02:00,
2013-01-22 16:12:00,43.0,19.0,30.35,WSW,243,0.0,-999.0,38,-99.99,,,-99.99,,2013-01-22 23:12:00,
2013-01-22 16:23:00,43.0,19.0,30.35,WSW,243,1.0,-999.0,37,-99.99,,,-99.99,,2013-01-22 23:23:00,
2013-01-22 16:33:00,43.0,19.0,30.35,WSW,243,2.0,-999.0,38,-99.99,,,-99.99,,2013-01-22 23:33:00,
2013-01-22 16:42:00,43.0,19.0,30.35,WSW,243,2.0,-999.0,38,-99.99,,,-99.99,,2013-01-22 23:42:00,
2013-01-22 16:52:00,42.0,19.0,30.36,WSW,243,2.0,-999.0,39,-99.99,,,-99.99,,2013-01-22 23:52:00,
2013-01-22 17:02:00,42.0,19.0,30.36,WSW,243,1.0,-999.0,40,-99.99,,,-99.99,,2013-01-23 00:02:00,
2013-01-22 17:12:00,42.0,19.0,30.36,WSW,243,1.0,-999.0,40,-99.99,,,-99.99,,2013-01-23 00:12:00,
2013-01-22 17:22:00,41.0,20.0,30.37,WSW,243,1.0,-999.0,42,-99.99,,,-99.99,,2013-01-23 00:22:00,
2013-01-22 17:33:00,39.0,19.0,30.37,WSW,243,0.0,-999.0,44,-99.99,,,-99.99,,2013-01-23 00:33:00,
2013-01-22 17:42:00,39.0,19.0,30.37,WSW,243,0.0,-999.0,44,-99.99,,,-99.99,,2013-01-23 00:42:00,
2013-01-22 17:52:00,37.0,19.0,30.39,WSW,243,0.0,-999.0,47,-99.99,,,-99.99,,2013-01-23 00:52:00,
2013-01-22 18:02:00,36.0,19.0,30.40,WSW,243,0.0,-999.0,49,-99.99,,,-99.99,,2013-01-23 01:02:00,
2013-01-22 18:12:00,36.0,19.0,30.40,WSW,243,0.0,-999.0,49,-99.99,,,-99.99,,2013-01-23 01:12:00,
2013-01-22 18:22:00,35.0,19.0,30.41,WSW,243,0.0,-999.0,51,-99.99,,,-99.99,,2013-01-23 01:22:00,
2013-01-22 18:32:00,32.0,18.0,30.43,WSW,243,0.0,-999.0,55,-99.99,,,-99.99,,2013-01-23 01:32:00,
2013-01-22 18:42:00,32.0,18.0,30.43,WSW,243,0.0,-999.0,55,-99.99,,,-99.99,,2013-01-23 01:42:00,
2013-01-22 18:52:00,29.0,18.0,30.46,WSW,243,1.0,-999.0,64,-99.99,,,-99.99,,2013-01-23 01:52:00,
2013-01-22 19:03:00,27.0,18.0,30.49,WSW,243,2.0,-999.0,69,-99.99,,,-99.99,,2013-01-23 02:03:00,
2013-01-22 19:12:00,27.0,18.0,30.49,WSW,243,2.0,-999.0,69,-99.99,,,-99.99,,2013-01-23 02:12:00,
2013-01-22 19:22:00,25.0,17.0,30.50,WSW,243,1.0,-999.0,72,-99.99,,,-99.99,,2013-01-23 02:22:00,
2013-01-22 19:32:00,24.0,17.0,30.52,WSW,243,1.0,-999.0,75,-99.99,,,-99.99,,2013-01-23 02:32:00,
2013-01-22 19:42:00,24.0,17.0,30.52,WSW,243,1.0,-999.0,75,-99.99,,,-99.99,,2013-01-23 02:42:00,
2013-01-22 19:53:00,23.0,17.0,30.51,WSW,243,1.0,-999.0,76,-99.99,,,-99.99,,2013-01-23 02:53:00,
2013-01-22 20:03:00,23.0,17.0,30.51,WSW,243,4.0,-999.0,77,-99.99,,,-99.99,,2013-01-23 03:03:00,
2013-01-22 20:12:00,23.0,17.0,30.51,WSW,243,4.0,-999.0,77,-99.99,,,-99.99,,2013-01-23 03:12:00,
2013-01-22 20:22:00,22.0,16.0,30.51,WSW,243,1.0,-999.0,78,-99.99,,,-99.99,,2013-01-23 03:22:00,
2013-01-22 20:32:00,22.0,16.0,30.52,WSW,243,1.0,-999.0,79,-99.99,,,-99.99,,2013-01-23 03:32:00,
2013-01-22 20:42:00,22.0,16.0,30.52,WSW,243,1.0,-999.0,79,-99.99,,,-99.99,,2013-01-23 03:42:00,
2013-01-22 20:52:00,22.0,16.0,30.48,WSW,243,3.0,-999.0,79,-99.99,,,-99.99,,2013-01-23 03:52:00,
2013-01-22 21:03:00,21.0,16.0,30.48,WSW,244,3.0,-999.0,79,-99.99,,,-99.99,,2013-01-23 04:03:00,
2013-01-22 21:12:00,21.0,16.0,30.48,WSW,244,3.0,-999.0,79,-99.99,,,-99.99,,2013-01-23 04:12:00,
2013-01-22 21:22:00,21.0,16.0,30.48,WSW,244,1.0,-999.0,79,-99.99,,,-99.99,,2013-01-23 04:22:00,
2013-01-22 21:32:00,22.0,16.0,30.48,WSW,244,3.0,-999.0,79,-99.99,,,-99.99,,2013-01-23 04:32:00,
2013-01-22 21:42:00,22.0,16.0,30.48,WSW,244,3.0,-999.0,79,-99.99,,,-99.99,,2013-01-23 04:42:00,
2013-01-22 21:52:00,22.0,16.0,30.43,WSW,244,2.0,-999.0,79,-99.99,,,-99.99,,2013-01-23 04:52:00,
2013-01-22 22:03:00,22.0,16.0,30.43,WSW,244,2.0,-999.0,78,-99.99,,,-99.99,,2013-01-23 05:03:00,
2013-01-22 22:12:00,22.0,16.0,30.43,WSW,244,2.0,-999.0,78,-99.99,,,-99.99,,2013-01-23 05:12:00,
2013-01-22 22:22:00,20.0,15.0,30.43,WSW,244,2.0,-999.0,79,-99.99,,,-99.99,,2013-01-23 05:22:00,
2013-01-22 22:33:00,20.0,15.0,30.46,WSW,244,2.0,-999.0,80,-99.99,,,-99.99,,2013-01-23 05:33:00,
2013-01-22 22:42:00,20.0,15.0,30.46,WSW,244,2.0,-999.0,80,-99.99,,,-99.99,,2013-01-23 05:42:00,
2013-01-22 22:52:00,19.0,14.0,30.43,WSW,245,3.0,-999.0,79,-99.99,,,-99.99,,2013-01-23 05:52:00,
2013-01-22 23:02:00,19.0,14.0,30.43,WSW,245,3.0,-999.0,80,-99.99,,,-99.99,,2013-01-23 06:02:00,
2013-01-22 23:12:00,19.0,14.0,30.43,WSW,245,3.0,-999.0,80,-99.99,,,-99.99,,2013-01-23 06:12:00,
2013-01-22 23:22:00,19.0,14.0,30.44,WSW,245,1.0,-999.0,80,-99.99,,,-99.99,,2013-01-23 06:22:00,
2013-01-22 23:32:00,18.0,13.0,30.44,WSW,245,1.0,-999.0,80,-99.99,,,-99.99,,2013-01-23 06:32:00,
2013-01-22 23:42:00,18.0,13.0,30.44,WSW,245,1.0,-999.0,80,-99.99,,,-99.99,,2013-01-23 06:42:00,
2013-01-22 23:52:00,18.0,13.0,30.41,WSW,245,2.0,-999.0,81,-99.99,,,-99.99,,2013-01-23 06:52:00,